DLH7KL UAAA-UACC

Flight info

Callsign DLH7KL
Flight time 1h 19m
Altitude 38000
Route ETEDA1B ETEDA W333 BANOS BANOS1D
Aircraft A339/H-SADE1E2E3GHIJ3J5M1P2RWXY/LB2D1

Departure

Time 2026-05-05 07:31
Airport Almaty International Airport (UAAA)

Arrival

Time 2026-05-05 08:50
Airport Nursultan Nazarbayev International Airport (UACC)
Time Latitude Longitude Altitude Speed Heading
2026-05-05 07:18 43.35054 77.01292 2218 ft 0 kts 250°
2026-05-05 07:24 43.35057 77.01302 2218 ft 1 kts 250°
2026-05-05 07:24 43.35064 77.01321 2218 ft 2 kts 230°
2026-05-05 07:24 43.35075 77.01335 2218 ft 2 kts 213°
2026-05-05 07:25 43.35088 77.01344 2218 ft 2 kts 196°
2026-05-05 07:25 43.35103 77.01347 2218 ft 2 kts 179°
2026-05-05 07:25 43.35118 77.01345 2217 ft 2 kts 162°
2026-05-05 07:25 43.35122 77.01344 2217 ft 0 kts 159°
2026-05-05 07:26 43.35121 77.01344 2217 ft 0 kts 159°
2026-05-05 07:27 43.35120 77.01344 2217 ft 0 kts 159°
2026-05-05 07:27 43.35071 77.01371 2218 ft 11 kts 158°
2026-05-05 07:27 43.34999 77.01413 2219 ft 11 kts 156°
2026-05-05 07:27 43.34925 77.01458 2221 ft 12 kts 156°
2026-05-05 07:28 43.34843 77.01506 2222 ft 13 kts 164°
2026-05-05 07:28 43.34759 77.01469 2224 ft 13 kts 226°
2026-05-05 07:28 43.34679 77.01453 2226 ft 12 kts 165°
2026-05-05 07:28 43.34595 77.01483 2229 ft 12 kts 165°
2026-05-05 07:29 43.34510 77.01517 2231 ft 12 kts 160°
2026-05-05 07:29 43.34423 77.01568 2232 ft 14 kts 156°
2026-05-05 07:29 43.34327 77.01627 2233 ft 16 kts 155°
2026-05-05 07:29 43.34222 77.01695 2234 ft 16 kts 153°
2026-05-05 07:30 43.34174 77.01821 2235 ft 17 kts 71°
2026-05-05 07:30 43.34890 77.03280 2228 ft 166 kts 56°
2026-05-05 07:30 43.35617 77.04750 2567 ft 200 kts 55°
2026-05-05 07:31 43.36444 77.06401 3077 ft 222 kts 54°
2026-05-05 07:31 43.37367 77.08178 3672 ft 235 kts 53°
2026-05-05 07:31 43.38364 77.10066 4201 ft 253 kts 53°
2026-05-05 07:31 43.39408 77.12052 4790 ft 267 kts 54°
2026-05-05 07:32 43.40498 77.14138 5638 ft 271 kts 54°
2026-05-05 07:32 43.41696 77.16126 6450 ft 275 kts 39°
2026-05-05 07:32 43.43432 77.17276 6934 ft 293 kts 10°
2026-05-05 07:32 43.45505 77.17065 7362 ft 314 kts 340°
2026-05-05 07:33 43.47495 77.15600 7811 ft 333 kts 329°
2026-05-05 07:33 43.49543 77.13914 8237 ft 351 kts 330°
2026-05-05 07:33 43.51648 77.12157 8723 ft 364 kts 326°
2026-05-05 07:33 43.53419 77.09653 8993 ft 369 kts 303°
2026-05-05 07:34 43.54326 77.06336 9433 ft 380 kts 280°
2026-05-05 07:34 43.54462 77.02730 10328 ft 381 kts 272°
2026-05-05 07:34 43.54569 76.99065 11185 ft 384 kts 275°
2026-05-05 07:34 43.55209 76.95496 11858 ft 389 kts 294°
2026-05-05 07:35 43.56612 76.92331 12591 ft 392 kts 310°
2026-05-05 07:35 43.58486 76.89610 13386 ft 396 kts 315°
2026-05-05 07:35 43.60424 76.86913 14087 ft 401 kts 316°
2026-05-05 07:35 43.62392 76.84162 14866 ft 405 kts 316°
2026-05-05 07:36 43.64348 76.81407 15608 ft 408 kts 315°
2026-05-05 07:36 43.66333 76.78586 16436 ft 412 kts 315°
2026-05-05 07:36 43.68328 76.75736 17186 ft 417 kts 315°
2026-05-05 07:36 43.70353 76.72838 17891 ft 422 kts 315°
2026-05-05 07:37 43.72375 76.69936 18648 ft 426 kts 315°
2026-05-05 07:37 43.74428 76.66989 19359 ft 430 kts 315°
2026-05-05 07:37 43.76467 76.63961 20131 ft 433 kts 314°
2026-05-05 07:37 43.78507 76.60828 20829 ft 437 kts 313°
2026-05-05 07:38 43.80514 76.57732 21460 ft 441 kts 313°
2026-05-05 07:38 43.82581 76.54613 22198 ft 442 kts 317°
2026-05-05 07:38 43.85105 76.52176 22741 ft 444 kts 337°
2026-05-05 07:38 43.88077 76.51165 23334 ft 445 kts 358°
2026-05-05 07:39 43.91173 76.51414 23967 ft 446 kts
2026-05-05 07:39 43.94246 76.51743 24509 ft 450 kts
2026-05-05 07:39 43.97367 76.51974 25003 ft 455 kts
2026-05-05 07:39 44.00555 76.52144 25504 ft 459 kts
2026-05-05 07:40 44.03767 76.52282 25996 ft 462 kts
2026-05-05 07:40 44.06949 76.52404 26477 ft 465 kts
2026-05-05 07:40 44.10189 76.52521 26966 ft 468 kts
2026-05-05 07:40 44.13453 76.52637 27418 ft 471 kts
2026-05-05 07:41 44.16719 76.52752 27862 ft 473 kts
2026-05-05 07:41 44.20013 76.52870 28316 ft 476 kts
2026-05-05 07:41 44.23327 76.52988 28750 ft 478 kts
2026-05-05 07:41 44.26687 76.53104 29040 ft 483 kts
2026-05-05 07:42 44.30059 76.52978 29235 ft 489 kts 356°
2026-05-05 07:42 44.33421 76.52412 29633 ft 490 kts 351°
2026-05-05 07:42 44.36751 76.51397 30175 ft 488 kts 345°
2026-05-05 07:42 44.39980 76.49948 30722 ft 486 kts 340°
2026-05-05 07:43 44.43069 76.48229 31233 ft 484 kts 338°
2026-05-05 07:43 44.46192 76.46407 31724 ft 482 kts 337°
2026-05-05 07:43 44.49241 76.44604 32171 ft 481 kts 337°
2026-05-05 07:43 44.52342 76.42769 32627 ft 480 kts 337°
2026-05-05 07:44 44.55374 76.40977 33113 ft 478 kts 337°
2026-05-05 07:44 44.58451 76.39162 33597 ft 477 kts 337°
2026-05-05 07:44 44.61473 76.37381 34023 ft 476 kts 337°
2026-05-05 07:44 44.64523 76.35584 34462 ft 474 kts 337°
2026-05-05 07:45 44.67576 76.33784 34864 ft 472 kts 336°
2026-05-05 07:45 44.70600 76.31999 35248 ft 470 kts 336°
2026-05-05 07:45 44.73601 76.30226 35593 ft 469 kts 336°
2026-05-05 07:45 44.76566 76.28473 35886 ft 469 kts 336°
2026-05-05 07:46 44.79572 76.26694 36083 ft 469 kts 336°
2026-05-05 07:46 44.82583 76.24908 36103 ft 469 kts 336°
2026-05-05 07:46 44.88574 76.21352 36107 ft 468 kts 336°
2026-05-05 07:47 44.94544 76.17799 36115 ft 468 kts 336°
2026-05-05 07:47 45.00536 76.14225 36114 ft 468 kts 336°
2026-05-05 07:48 45.06541 76.10637 36112 ft 468 kts 336°
2026-05-05 07:48 45.12515 76.07059 36118 ft 467 kts 336°
2026-05-05 07:49 45.18488 76.03473 36128 ft 467 kts 336°
2026-05-05 07:49 45.24455 75.99882 36115 ft 467 kts 336°
2026-05-05 07:50 45.30418 75.96286 36110 ft 466 kts 336°
2026-05-05 07:50 45.36370 75.92688 36127 ft 467 kts 336°
2026-05-05 07:51 45.42323 75.89082 36127 ft 466 kts 336°
2026-05-05 07:51 45.48278 75.85467 36119 ft 466 kts 336°
2026-05-05 07:52 45.54194 75.81866 36125 ft 466 kts 336°
2026-05-05 07:52 45.60132 75.78247 36128 ft 465 kts 336°
2026-05-05 07:53 45.66076 75.74616 36124 ft 466 kts 336°
2026-05-05 07:53 45.72029 75.70970 36118 ft 464 kts 336°
2026-05-05 07:54 45.77950 75.67325 36123 ft 464 kts 336°
2026-05-05 07:54 45.83850 75.63689 36121 ft 465 kts 336°
2026-05-05 07:55 45.89772 75.60035 36129 ft 464 kts 336°
2026-05-05 07:55 45.95701 75.56370 36129 ft 464 kts 337°
2026-05-05 07:56 46.01609 75.52711 36136 ft 463 kts 336°
2026-05-05 07:56 46.07513 75.49047 36128 ft 463 kts 337°
2026-05-05 07:57 46.13393 75.45392 36132 ft 462 kts 336°
2026-05-05 07:57 46.19322 75.41695 36140 ft 463 kts 336°
2026-05-05 07:58 46.25190 75.38030 36130 ft 464 kts 337°
2026-05-05 07:58 46.31116 75.34339 36130 ft 464 kts 336°
2026-05-05 07:59 46.37034 75.30653 36134 ft 463 kts 336°
2026-05-05 07:59 46.42903 75.26988 36136 ft 462 kts 336°
2026-05-05 08:00 46.48794 75.23300 36141 ft 462 kts 336°
2026-05-05 08:00 46.54694 75.19599 36141 ft 462 kts 336°
2026-05-05 08:01 46.60557 75.15914 36150 ft 462 kts 336°
2026-05-05 08:01 46.66460 75.12192 36150 ft 462 kts 336°
2026-05-05 08:02 46.72342 75.08480 36153 ft 463 kts 335°
2026-05-05 08:02 46.78205 75.04769 36160 ft 462 kts 335°
2026-05-05 08:03 46.84102 75.01028 36159 ft 462 kts 335°
2026-05-05 08:03 46.90020 74.97397 36156 ft 463 kts 338°
2026-05-05 08:04 46.96028 74.94069 36157 ft 463 kts 338°
2026-05-05 08:04 47.02039 74.90767 36156 ft 463 kts 338°
2026-05-05 08:05 47.08071 74.87436 36166 ft 463 kts 338°
2026-05-05 08:05 47.14079 74.84112 36157 ft 463 kts 338°
2026-05-05 08:06 47.20109 74.80763 36171 ft 464 kts 338°
2026-05-05 08:06 47.26127 74.77417 36189 ft 463 kts 338°
2026-05-05 08:07 47.32126 74.74069 36181 ft 463 kts 338°
2026-05-05 08:07 47.38129 74.70714 36194 ft 464 kts 338°
2026-05-05 08:08 47.44136 74.67354 36185 ft 464 kts 338°
2026-05-05 08:08 47.50155 74.63970 36198 ft 464 kts 338°
2026-05-05 08:09 47.56186 74.60577 36196 ft 464 kts 338°
2026-05-05 08:09 47.62190 74.57204 36192 ft 464 kts 338°
2026-05-05 08:10 47.68236 74.53809 36189 ft 464 kts 338°
2026-05-05 08:10 47.74270 74.50414 36174 ft 465 kts 337°
2026-05-05 08:11 47.80296 74.47010 36192 ft 465 kts 338°
2026-05-05 08:11 47.86315 74.43607 36176 ft 465 kts 337°
2026-05-05 08:12 47.92361 74.40179 36188 ft 465 kts 337°
2026-05-05 08:12 47.98404 74.36748 36196 ft 466 kts 337°
2026-05-05 08:13 48.04419 74.33324 36194 ft 465 kts 336°
2026-05-05 08:13 48.10444 74.29883 36187 ft 466 kts 336°
2026-05-05 08:14 48.16537 74.26405 36194 ft 466 kts 336°
2026-05-05 08:14 48.22586 74.22973 36205 ft 466 kts 336°
2026-05-05 08:15 48.28605 74.19557 36186 ft 466 kts 336°
2026-05-05 08:15 48.34669 74.16108 36185 ft 467 kts 336°
2026-05-05 08:16 48.40744 74.12643 36189 ft 467 kts 336°
2026-05-05 08:16 48.46806 74.09178 36186 ft 468 kts 336°
2026-05-05 08:17 48.52826 74.05726 36190 ft 467 kts 336°
2026-05-05 08:17 48.58912 74.02227 36185 ft 467 kts 336°
2026-05-05 08:18 48.64983 73.98732 36181 ft 468 kts 336°
2026-05-05 08:18 48.71051 73.95227 36188 ft 468 kts 336°
2026-05-05 08:19 48.77083 73.91734 36187 ft 468 kts 336°
2026-05-05 08:19 48.83160 73.88207 36185 ft 468 kts 336°
2026-05-05 08:20 48.89231 73.84678 36184 ft 468 kts 336°
2026-05-05 08:20 48.95295 73.81142 36182 ft 468 kts 336°
2026-05-05 08:21 49.01326 73.77604 36173 ft 469 kts 336°
2026-05-05 08:21 49.07435 73.73992 36178 ft 469 kts 336°
2026-05-05 08:22 49.13488 73.70413 36165 ft 469 kts 336°
2026-05-05 08:22 49.19546 73.66821 36164 ft 469 kts 336°
2026-05-05 08:23 49.25635 73.63203 36158 ft 469 kts 336°
2026-05-05 08:23 49.31698 73.59594 36156 ft 469 kts 336°
2026-05-05 08:24 49.37724 73.55997 36136 ft 469 kts 336°
2026-05-05 08:24 49.43778 73.52374 36132 ft 469 kts 336°
2026-05-05 08:25 49.49852 73.48731 36114 ft 469 kts 336°
2026-05-05 08:25 49.55894 73.45099 36109 ft 468 kts 336°
2026-05-05 08:26 49.61914 73.41379 36104 ft 467 kts 333°
2026-05-05 08:26 49.67657 73.36726 36103 ft 465 kts 326°
2026-05-05 08:27 49.72898 73.31038 36108 ft 462 kts 318°
2026-05-05 08:27 49.77689 73.24462 36105 ft 461 kts 314°
2026-05-05 08:28 49.82355 73.17709 36106 ft 461 kts 314°
2026-05-05 08:28 49.87006 73.10963 36101 ft 461 kts 314°
2026-05-05 08:29 49.91690 73.04169 36103 ft 461 kts 314°
2026-05-05 08:30 49.98677 72.94001 36095 ft 460 kts 314°
2026-05-05 08:30 50.03317 72.87225 36097 ft 461 kts 314°
2026-05-05 08:31 50.07978 72.80405 36096 ft 461 kts 314°
2026-05-05 08:31 50.12630 72.73576 35788 ft 463 kts 314°
2026-05-05 08:31 50.14972 72.70129 35114 ft 463 kts 314°
2026-05-05 08:32 50.17366 72.66758 34438 ft 465 kts 318°
2026-05-05 08:32 50.19955 72.63819 33720 ft 469 kts 324°
2026-05-05 08:32 50.22787 72.61285 32998 ft 475 kts 329°
2026-05-05 08:32 50.25719 72.58929 32274 ft 478 kts 330°
2026-05-05 08:33 50.28687 72.56603 31550 ft 480 kts 330°
2026-05-05 08:33 50.31684 72.54262 30781 ft 483 kts 330°
2026-05-05 08:33 50.34692 72.51901 30006 ft 484 kts 331°
2026-05-05 08:33 50.37676 72.49550 29239 ft 481 kts 331°
2026-05-05 08:34 50.40616 72.47231 28481 ft 478 kts 331°
2026-05-05 08:34 50.43566 72.44885 27725 ft 475 kts 330°
2026-05-05 08:34 50.46463 72.42570 26918 ft 468 kts 330°
2026-05-05 08:34 50.49312 72.40295 26167 ft 456 kts 330°
2026-05-05 08:35 50.52143 72.38031 25416 ft 453 kts 330°
2026-05-05 08:35 50.54901 72.35823 24668 ft 449 kts 330°
2026-05-05 08:35 50.57650 72.33623 23898 ft 443 kts 329°
2026-05-05 08:35 50.60397 72.31421 23121 ft 438 kts 329°
2026-05-05 08:36 50.63086 72.29263 22404 ft 436 kts 329°
2026-05-05 08:36 50.65746 72.27125 21660 ft 437 kts 329°
2026-05-05 08:36 50.68472 72.24933 20900 ft 437 kts 329°
2026-05-05 08:36 50.71149 72.22779 20097 ft 431 kts 329°
2026-05-05 08:37 50.73772 72.20669 19337 ft 419 kts 329°
2026-05-05 08:37 50.76304 72.18630 18610 ft 412 kts 329°
2026-05-05 08:37 50.78857 72.16568 17869 ft 409 kts 329°
2026-05-05 08:37 50.81356 72.14547 17129 ft 400 kts 328°
2026-05-05 08:38 50.83758 72.12605 16374 ft 385 kts 328°
2026-05-05 08:38 50.86097 72.10712 15641 ft 371 kts 328°
2026-05-05 08:38 50.88338 72.08892 14917 ft 360 kts 328°
2026-05-05 08:38 50.90529 72.07110 14193 ft 351 kts 328°
2026-05-05 08:39 50.92669 72.05366 13472 ft 342 kts 328°
2026-05-05 08:39 50.94736 72.03682 12766 ft 336 kts 328°
2026-05-05 08:39 50.96793 72.02004 12068 ft 330 kts 328°
2026-05-05 08:39 50.98787 72.00375 11599 ft 318 kts 328°
2026-05-05 08:40 51.00713 71.98801 11198 ft 305 kts 328°
2026-05-05 08:40 51.02560 71.97292 10806 ft 294 kts 328°
2026-05-05 08:40 51.04353 71.95823 10411 ft 285 kts 328°
2026-05-05 08:40 51.06072 71.94412 10023 ft 277 kts 328°
2026-05-05 08:41 51.07752 71.93032 9632 ft 270 kts 328°
2026-05-05 08:41 51.09408 71.91671 9230 ft 264 kts 328°
2026-05-05 08:41 51.11034 71.90334 8843 ft 262 kts 328°
2026-05-05 08:41 51.12631 71.89018 8463 ft 261 kts 328°
2026-05-05 08:42 51.14176 71.87501 8081 ft 263 kts 319°
2026-05-05 08:42 51.15551 71.85628 7680 ft 258 kts 312°
2026-05-05 08:42 51.16804 71.83647 7419 ft 249 kts 310°
2026-05-05 08:42 51.17985 71.81737 7173 ft 240 kts 310°
2026-05-05 08:43 51.19139 71.79871 6926 ft 232 kts 310°
2026-05-05 08:43 51.20209 71.78037 6673 ft 222 kts 298°
2026-05-05 08:43 51.20676 71.75814 6408 ft 208 kts 265°
2026-05-05 08:43 51.20257 71.73698 6161 ft 198 kts 231°
2026-05-05 08:44 51.19219 71.72366 5948 ft 191 kts 214°
2026-05-05 08:44 51.18124 71.71211 5660 ft 187 kts 218°
2026-05-05 08:44 51.17152 71.69955 5319 ft 179 kts 224°
2026-05-05 08:44 51.16270 71.68593 4987 ft 172 kts 226°
2026-05-05 08:45 51.15445 71.67270 4646 ft 168 kts 226°
2026-05-05 08:45 51.14629 71.65966 4308 ft 165 kts 226°
2026-05-05 08:45 51.13826 71.64698 3971 ft 164 kts 226°
2026-05-05 08:45 51.13022 71.63438 3684 ft 159 kts 226°
2026-05-05 08:46 51.12252 71.62236 3481 ft 150 kts 226°
2026-05-05 08:46 51.11540 71.61127 3294 ft 141 kts 226°
2026-05-05 08:46 51.10852 71.60054 3115 ft 132 kts 226°
2026-05-05 08:46 51.10209 71.59051 2959 ft 130 kts 226°
2026-05-05 08:47 51.09568 71.58051 2811 ft 130 kts 226°
2026-05-05 08:47 51.08927 71.57053 2645 ft 126 kts 226°
2026-05-05 08:47 51.08306 71.56082 2487 ft 125 kts 226°
2026-05-05 08:47 51.07689 71.55116 2332 ft 125 kts 224°
2026-05-05 08:48 51.07067 71.54149 2169 ft 125 kts 227°
2026-05-05 08:48 51.06444 71.53174 2005 ft 125 kts 226°
2026-05-05 08:48 51.05822 71.52203 1841 ft 126 kts 227°
2026-05-05 08:48 51.05209 71.51225 1684 ft 125 kts 224°
2026-05-05 08:49 51.04568 71.50264 1504 ft 127 kts 226°
2026-05-05 08:49 51.03946 71.49277 1340 ft 127 kts 225°
2026-05-05 08:49 51.03314 71.48279 1181 ft 129 kts 227°
2026-05-05 08:49 51.02750 71.47380 1176 ft 85 kts 225°
2026-05-05 08:50 51.02537 71.47057 1177 ft 17 kts 227°
2026-05-05 08:50 51.02540 71.46892 1176 ft 16 kts 308°
2026-05-05 08:50 51.02584 71.46810 1176 ft 6 kts 311°
2026-05-05 08:50 51.02616 71.46757 1177 ft 4 kts 315°
2026-05-05 08:51 51.02626 71.46732 1178 ft 1 kts 270°
2026-05-05 08:51 51.02572 71.46654 1177 ft 12 kts 223°
2026-05-05 08:51 51.02499 71.46543 1177 ft 19 kts 226°
2026-05-05 08:51 51.02391 71.46375 1176 ft 19 kts 224°
2026-05-05 08:52 51.02363 71.46236 1176 ft 12 kts 297°
2026-05-05 08:52 51.02426 71.46111 1178 ft 13 kts 313°
2026-05-05 08:52 51.02494 71.46004 1178 ft 13 kts 316°
2026-05-05 08:52 51.02564 71.45892 1176 ft 12 kts 313°
2026-05-05 08:53 51.02610 71.45864 1176 ft 7 kts 20°
2026-05-05 08:53 51.02643 71.45905 1176 ft 3 kts 43°
2026-05-05 08:53 51.02649 71.45915 1176 ft 0 kts 43°